Theta_e
349 344 334 332 329 324 321 319 313 312 313 312 313 315 315 315 317 317 317 318 320 322 323 323 325 328 332 336 336 337 337 338 338 337 337 338 338 338 338 338 338 337 336 335 335 334 332 332 334 337 338 338 338 337 337 337 337 337 336 336 336 335 334 335 335 334 334 333 333 333 331 330 329 330 331 331 331 332 333 335 337 335 333 332 332
348 342 334 332 329 323 321 318 313 312 314 313 314 316 316 315 316 316 316 316 319 321 324 327 331 334 336 336 336 337 338 338 337 337 338 337 338 337 338 338 337 336 336 335 334 332 330 332 336 338 338 339 339 337 336 336 337 336 336 335 334 334 334 334 334 333 331 330 329 329 329 328 327 329 331 330 330 331 333 335 337 333 330 330 329
348 340 333 332 328 323 321 319 314 313 314 313 315 316 315 315 316 316 317 320 324 327 329 332 335 336 336 337 337 338 337 337 337 337 337 337 337 337 337 337 336 335 335 334 332 331 328 332 337 338 338 338 337 336 335 335 335 335 335 335 334 334 334 333 332 330 327 325 326 330 331 329 327 328 329 330 330 332 333 333 333 328 325 325 324
347 338 333 333 328 323 321 319 314 313 314 313 315 316 315 315 316 318 322 326 329 331 331 334 336 336 337 337 337 337 336 336 336 336 336 336 336 336 336 336 336 335 335 333 331 328 326 333 337 337 338 336 335 335 334 334 335 335 335 334 335 334 333 332 329 328 325 321 326 333 334 330 325 325 327 329 330 331 331 331 330 325 321 319 319
346 336 333 333 328 323 321 320 314 313 314 314 316 316 316 315 317 322 327 329 330 330 331 335 337 337 337 337 336 336 336 335 335 335 335 334 335 334 334 334 333 332 331 331 329 325 325 334 337 336 337 336 335 335 335 335 335 334 334 334 333 332 329 324 321 323 322 321 329 335 335 331 323 320 323 324 327 328 326 325 325 323 320 317 315
344 334 334 332 328 324 321 320 314 313 314 314 316 316 316 316 320 327 330 329 329 328 331 336 338 336 337 337 336 336 335 334 332 332 331 331 330 328 327 327 326 324 323 324 324 321 325 335 336 336 336 335 335 334 335 334 333 332 332 331 327 323 319 315 313 315 319 325 332 335 334 333 324 315 319 320 322 322 320 320 320 320 318 316 314
341 333 334 331 328 324 321 321 315 313 314 314 316 317 317 317 322 328 329 329 328 329 333 337 337 337 336 336 336 335 334 332 328 325 322 320 317 314 314 315 315 315 313 314 316 317 327 335 335 336 336 335 334 332 332 330 330 330 329 324 317 313 311 311 310 312 323 332 334 335 334 334 326 313 313 316 317 317 316 316 317 317 315 313 313
337 333 333 331 328 323 322 321 315 313 314 315 316 318 318 319 323 327 329 329 330 333 336 337 337 337 336 336 335 334 333 329 323 316 311 310 308 308 308 308 308 309 308 307 309 314 327 335 334 335 335 334 332 329 326 324 325 325 322 315 312 310 311 312 311 316 328 334 333 334 333 333 328 315 310 312 312 314 313 313 314 313 313 311 311
336 334 333 331 327 323 322 322 316 313 315 315 317 318 318 320 323 328 331 332 333 335 336 337 337 336 335 335 334 333 329 321 314 310 308 308 308 308 308 308 308 308 307 307 309 312 321 330 331 331 331 331 327 325 321 319 318 317 314 311 311 310 313 314 313 322 331 333 332 333 332 334 331 316 308 310 310 311 311 311 313 312 311 311 310
335 334 334 331 326 323 323 322 317 313 315 314 317 319 319 322 324 330 334 335 335 335 336 336 336 335 335 334 332 329 322 313 309 309 308 309 308 308 308 308 308 308 308 307 309 312 317 321 325 326 326 325 322 319 317 316 315 314 312 310 310 309 314 315 317 326 332 332 328 325 323 329 331 316 308 310 309 310 310 311 312 311 310 311 310
334 334 336 331 326 324 323 323 318 312 315 315 316 319 320 323 326 332 334 335 335 336 336 336 336 335 334 333 329 323 315 310 309 309 309 309 309 308 308 308 308 307 308 307 308 313 318 319 321 322 321 320 318 318 317 317 316 315 312 310 310 310 312 313 323 328 331 333 325 320 321 324 323 311 310 310 309 310 310 310 310 311 310 311 310
333 336 337 331 327 327 324 324 319 313 314 315 315 318 321 323 327 334 336 335 335 336 336 335 335 335 334 332 327 319 311 309 309 309 309 310 309 309 308 308 308 308 307 308 309 314 319 320 320 320 319 319 319 320 320 320 318 317 313 311 311 311 311 312 325 329 330 331 321 323 329 326 316 309 312 310 311 311 310 311 310 311 310 311 311
335 338 335 330 329 329 326 325 321 315 313 315 315 317 320 323 326 331 335 334 334 335 335 334 334 335 334 331 326 317 309 309 309 310 310 310 310 309 309 308 308 308 308 308 310 316 319 319 319 319 320 320 321 322 322 320 319 320 315 313 312 312 312 312 323 328 327 324 318 323 324 319 313 310 312 311 312 312 311 312 311 312 311 311 311
336 339 334 331 330 329 328 326 322 317 313 314 315 315 318 321 325 328 331 334 334 334 334 334 334 334 333 329 323 314 310 310 310 310 310 310 311 311 310 309 309 308 308 309 312 316 318 318 318 320 320 322 322 323 322 321 321 321 318 316 316 315 315 316 322 324 322 319 320 327 322 314 313 312 312 311 312 312 312 312 311 312 311 312 311
336 337 335 333 331 330 331 328 324 320 314 313 315 315 317 319 322 326 328 332 334 333 333 334 333 333 332 328 321 314 311 310 310 310 311 310 311 311 311 311 310 309 309 310 313 316 318 318 318 320 321 322 323 323 322 322 322 321 320 318 319 318 317 324 328 324 322 321 320 327 326 317 314 313 312 312 312 312 312 312 312 312 312 311 311
339 336 337 336 332 331 332 330 326 321 316 313 315 315 315 317 320 323 327 331 333 332 333 334 333 332 331 326 320 315 313 312 312 311 311 311 310 311 311 311 310 309 309 310 313 316 318 318 319 320 320 322 323 324 324 323 322 322 322 320 320 320 318 326 331 328 326 326 322 327 327 316 315 316 313 313 312 312 312 312 312 312 312 312 311
341 338 339 339 335 334 333 332 327 323 318 314 314 315 315 316 318 322 327 330 332 332 332 333 333 332 331 327 322 317 315 315 314 313 312 311 311 311 311 311 311 310 309 310 313 316 317 318 319 320 320 322 323 324 324 324 324 323 323 322 321 321 320 322 329 331 327 325 323 328 329 318 316 317 315 315 313 312 312 311 312 312 312 312 312
342 340 341 340 339 338 336 332 329 324 319 315 313 315 315 315 317 320 326 329 331 331 331 332 332 332 330 327 324 319 318 319 317 316 315 313 312 311 311 311 311 311 310 310 312 315 316 317 319 319 320 320 321 323 324 324 324 324 324 324 322 322 322 320 330 331 323 322 326 329 328 320 318 319 318 318 316 315 313 312 312 312 312 312 312
342 341 341 341 340 340 338 334 334 328 320 318 313 313 316 315 315 318 323 328 330 330 330 330 330 329 327 326 324 323 322 321 320 319 318 316 314 312 312 311 310 311 310 310 311 314 315 317 319 319 320 320 320 321 323 324 324 326 325 324 322 323 322 323 331 332 327 326 329 330 325 320 320 320 321 320 319 318 316 314 312 311 311 311 312
342 342 341 341 340 339 339 338 338 334 325 321 315 312 316 316 315 316 319 326 328 328 328 327 326 325 325 326 326 330 329 326 326 323 321 319 317 315 313 312 312 310 310 310 311 313 315 317 319 320 321 320 321 321 322 323 323 325 326 325 323 321 321 328 331 331 332 329 327 329 323 320 322 320 322 322 322 321 320 318 316 315 312 312 311
342 342 341 340 339 338 339 339 339 338 332 325 321 314 312 317 316 316 318 323 325 325 327 325 325 324 324 328 331 334 332 330 330 327 325 322 320 320 317 315 313 312 311 310 310 312 314 317 320 322 323 322 323 322 322 322 323 324 325 327 325 323 324 328 330 331 333 330 328 329 322 320 322 321 322 322 323 323 323 322 321 319 316 314 312
343 342 340 340 340 339 339 339 339 338 333 325 323 312 311 318 316 320 326 326 324 323 327 327 327 326 326 330 334 333 331 331 329 327 328 324 321 321 320 319 316 315 313 311 310 310 312 315 319 323 324 324 324 325 325 322 322 323 325 327 325 329 330 326 328 332 333 331 331 328 321 321 321 320 322 322 323 323 323 324 323 322 320 318 316
343 342 341 340 339 339 339 340 339 336 332 327 324 317 320 327 324 328 333 330 328 329 331 330 331 332 330 331 332 331 331 331 323 318 322 319 318 318 319 320 319 318 316 315 313 311 311 312 316 321 323 324 325 328 330 329 325 322 323 325 324 329 330 324 327 333 332 332 331 327 323 322 321 320 320 321 322 322 323 323 324 324 323 322 320
344 342 341 340 339 339 339 339 338 335 334 332 329 326 327 331 332 333 335 334 334 334 333 332 333 333 331 330 332 332 331 328 320 317 320 321 321 319 320 322 320 321 320 318 317 315 313 312 313 315 319 324 327 330 332 333 331 325 321 322 326 328 326 325 329 332 333 333 331 327 326 325 324 324 322 322 322 321 322 322 323 324 324 324 322
344 342 341 340 339 339 339 339 336 334 335 333 328 323 320 324 329 333 335 334 334 334 334 333 332 330 328 326 327 328 324 322 324 327 329 328 327 326 329 329 327 327 324 322 322 319 317 319 319 317 322 326 327 328 328 332 333 330 328 325 327 326 326 329 330 328 332 334 331 328 328 328 328 327 326 325 323 322 322 321 322 323 325 324 323
343 342 341 339 338 338 339 338 336 333 335 332 322 315 311 313 321 329 334 334 333 332 333 332 328 322 321 319 318 317 316 323 330 332 334 334 333 334 336 335 334 334 332 330 329 326 324 326 325 325 327 326 325 323 320 325 331 333 333 331 328 327 327 330 329 324 329 333 331 329 330 331 330 330 329 328 327 324 322 321 322 323 324 325 324
343 342 340 339 339 338 338 337 335 333 333 330 319 311 308 309 315 324 331 333 330 326 324 324 319 314 316 317 318 321 325 332 336 335 336 336 337 337 338 337 337 338 336 334 334 333 333 332 329 327 325 325 327 326 320 320 323 328 333 333 331 331 330 329 329 326 328 332 332 330 331 331 331 330 330 330 330 327 325 322 322 323 324 325 325
342 341 340 339 339 338 338 337 334 332 331 325 316 311 309 311 315 323 328 327 321 317 314 314 316 321 325 327 328 331 334 336 337 337 337 336 336 336 337 338 338 339 339 337 337 338 338 337 335 331 327 327 330 331 330 327 323 323 328 332 332 332 331 330 330 328 328 331 332 331 330 331 331 331 330 330 331 330 328 325 323 324 324 324 325
341 340 339 339 338 338 336 334 332 331 327 318 314 312 310 313 318 323 322 316 313 314 315 318 325 331 334 336 337 337 338 337 337 337 336 336 336 335 335 336 336 337 338 339 339 339 339 339 338 336 334 333 332 331 332 332 330 326 326 329 332 332 329 328 329 329 327 328 331 332 331 331 331 331 331 330 331 331 330 328 324 324 324 324 325
340 339 339 339 338 336 333 329 329 327 320 315 314 313 312 318 322 319 315 315 320 322 325 330 334 337 338 338 338 338 338 337 337 336 336 336 336 335 335 334 334 335 337 338 337 338 338 337 337 337 337 337 336 335 333 332 332 331 330 329 330 332 330 329 329 330 330 328 330 332 331 331 331 331 331 330 331 331 331 330 326 324 324 324 325
339 339 338 338 336 333 329 325 324 321 315 314 315 314 315 321 321 319 322 327 330 332 334 335 336 338 338 337 337 336 336 337 336 336 336 336 336 335 335 333 333 334 334 335 334 334 335 334 334 334 335 337 337 337 337 335 333 332 332 331 331 331 332 331 331 330 330 330 330 331 331 331 332 332 331 331 331 331 331 331 329 326 325 325 326
339 338 338 337 333 330 327 324 321 317 314 315 315 313 317 323 327 330 334 334 334 335 336 335 335 335 335 335 337 336 336 336 336 336 335 335 335 334 334 334 333 333 332 332 332 332 332 333 333 333 333 334 335 336 338 337 336 335 334 333 332 332 331 332 332 332 330 330 329 329 329 329 331 333 332 331 330 331 331 331 330 328 326 325 326
339 338 338 336 331 328 326 323 318 315 316 317 315 316 322 329 334 336 336 334 334 335 335 335 335 335 335 336 337 336 335 335 335 334 333 333 333 332 332 333 333 332 331 331 331 331 331 332 333 333 333 333 333 334 336 337 337 337 336 335 334 333 332 332 333 334 333 331 329 329 329 327 328 331 332 332 330 331 332 331 331 329 327 325 326
338 338 337 334 330 325 322 321 316 316 318 317 316 320 327 332 334 335 335 334 334 334 335 336 336 337 337 336 335 334 332 333 332 331 331 332 332 332 332 332 331 331 331 331 330 330 330 331 332 331 332 333 333 332 334 336 336 336 337 337 336 335 334 333 333 334 334 332 331 330 330 328 327 328 331 332 330 331 332 331 331 330 328 326 325
338 338 337 334 330 324 322 320 317 319 319 319 322 327 330 333 334 336 336 336 335 335 336 337 337 337 336 335 333 332 331 331 331 331 331 331 331 331 331 331 330 330 330 331 330 330 330 330 330 331 332 333 332 333 334 334 334 335 335 337 337 336 336 335 334 334 333 331 330 330 328 327 326 328 330 331 330 331 332 331 331 330 329 327 325
340 338 337 334 331 325 321 320 320 322 321 323 329 331 333 336 336 337 337 337 337 336 337 337 337 335 334 334 333 331 332 331 331 331 331 331 331 330 330 330 329 329 330 330 329 329 329 328 328 330 331 332 331 332 333 333 334 333 333 335 336 337 337 335 335 335 334 333 332 332 330 327 325 326 329 331 330 331 331 331 331 330 330 328 326
341 339 336 334 331 326 322 324 328 329 326 326 329 332 335 337 337 337 337 337 338 338 338 337 336 335 334 333 332 332 332 332 332 332 332 332 332 331 331 331 331 331 331 331 330 331 330 329 329 330 330 332 332 332 331 332 333 333 333 334 335 335 336 335 334 334 335 336 334 333 333 330 327 327 329 331 330 329 329 330 331 331 330 329 326
340 338 337 334 331 329 328 332 335 336 333 330 331 335 337 337 337 338 338 338 338 338 337 337 337 334 333 333 332 332 332 333 333 332 332 332 333 333 333 333 332 332 332 332 331 331 332 332 331 331 332 333 333 334 333 332 332 332 332 332 333 333 334 334 333 332 333 334 334 334 334 332 330 330 330 331 330 328 326 326 328 331 331 330 327
339 338 337 334 331 331 335 337 338 338 336 335 336 337 337 337 338 338 338 339 338 338 337 336 335 333 333 332 332 333 333 333 333 332 333 333 333 334 333 333 331 331 330 329 329 328 327 329 329 329 331 332 332 333 333 333 332 333 332 332 331 331 331 331 331 331 331 331 332 333 333 332 332 332 331 331 331 329 327 324 325 329 331 330 328
339 338 337 334 332 335 338 338 338 339 338 338 337 337 337 337 338 338 339 339 338 337 335 333 333 333 332 331 332 334 334 334 333 333 333 332 332 332 332 330 329 329 328 327 327 326 325 326 328 328 328 329 330 331 331 331 331 331 332 332 332 331 330 330 329 330 329 330 331 331 331 332 332 332 331 331 332 331 329 325 325 328 330 331 330
340 340 338 335 336 338 339 338 339 339 340 339 338 337 338 338 338 339 339 339 338 335 332 332 333 333 333 333 334 334 334 334 333 332 332 331 329 329 329 329 329 329 330 330 328 327 326 327 328 328 328 328 329 330 329 329 329 328 331 332 332 332 332 331 330 330 329 329 329 329 329 331 332 332 331 331 331 332 331 329 328 329 330 331 331
340 341 340 337 338 339 339 339 339 339 340 339 338 338 339 339 339 339 339 338 336 334 333 334 334 334 335 334 334 334 333 332 330 329 328 328 328 329 329 330 330 330 330 331 330 329 328 327 328 328 329 328 328 328 327 328 327 328 331 331 330 331 331 332 332 331 330 329 329 329 329 330 331 331 330 330 330 331 332 331 330 330 330 330 331
341 341 340 339 339 338 338 339 339 340 340 339 339 339 339 339 340 339 337 335 333 334 334 334 335 335 335 334 333 333 331 328 328 328 327 328 328 329 329 329 330 330 330 330 330 329 329 328 328 328 328 327 328 328 327 327 328 329 330 330 329 329 330 332 332 331 331 330 329 329 329 329 329 330 330 330 330 331 332 331 331 330 330 330 332
342 340 339 339 339 338 337 337 338 340 339 339 339 339 339 339 338 335 333 333 333 334 334 335 335 335 334 333 332 332 330 326 326 326 326 327 327 327 327 328 329 329 329 329 329 329 328 328 328 327 328 328 328 328 328 328 328 329 330 330 329 329 330 331 331 330 331 332 331 329 328 328 329 329 330 330 331 331 331 331 331 330 330 330 331
341 340 340 340 339 338 337 337 338 339 339 339 338 338 338 337 335 332 332 333 334 335 335 335 335 334 334 332 330 329 328 326 324 324 325 325 324 324 325 326 327 327 328 329 328 328 328 328 328 328 328 328 328 329 329 329 329 329 329 329 330 329 330 330 329 329 329 331 332 331 329 328 329 329 330 330 330 331 331 331 331 331 331 330 330
340 340 340 339 338 338 338 338 339 339 338 338 338 338 337 335 334 334 335 335 335 335 336 335 334 334 333 331 329 326 324 323 323 323 323 323 322 323 324 324 325 325 326 327 328 328 328 328 328 328 328 328 328 329 329 330 329 329 329 329 329 328 329 329 329 329 328 330 332 332 331 329 329 329 329 329 329 330 330 330 330 330 331 330 330
340 340 340 339 338 338 338 339 339 339 338 338 337 337 335 334 335 336 337 337 336 335 334 334 334 333 332 331 329 324 322 322 322 322 321 321 322 323 324 324 324 325 325 326 327 327 327 328 328 328 328 329 329 329 329 330 329 328 329 329 328 328 328 329 329 329 330 329 328 329 331 332 331 329 328 329 329 330 329 330 330 330 331 330 330
340 339 340 339 339 339 339 338 338 338 337 337 336 335 334 335 336 336 336 336 335 334 334 333 333 332 331 330 327 322 321 322 321 321 321 322 323 324 324 324 324 325 326 327 328 328 328 328 328 328 328 329 330 329 329 329 328 328 328 328 328 328 328 329 328 329 329 328 327 326 328 330 331 331 330 329 329 329 329 329 330 329 330 330 330
339 339 339 339 339 339 338 338 337 336 336 335 335 335 335 335 335 335 335 335 334 333 334 333 332 332 330 327 325 323 322 322 321 321 322 323 323 323 324 323 323 324 325 326 327 327 328 328 328 328 328 329 330 329 328 328 328 328 328 328 328 327 328 328 328 329 328 327 327 327 328 329 330 332 332 330 329 329 329 329 329 329 330 330 330
339 339 339 339 339 338 337 337 337 335 334 334 335 335 335 335 334 334 334 333 333 333 333 332 331 330 329 327 326 324 322 321 321 322 323 323 323 323 323 322 322 323 322 323 323 325 326 327 327 328 328 328 328 328 328 327 328 329 328 329 329 328 327 327 327 329 329 327 327 328 328 329 329 330 332 332 330 329 328 328 328 328 329 329 330
338 338 338 338 337 337 336 336 335 335 335 335 335 335 334 334 334 334 333 332 332 332 331 330 329 329 328 327 326 325 322 321 322 323 323 323 323 322 322 322 322 322 321 321 322 323 324 325 326 327 328 328 328 328 327 327 328 328 328 328 329 329 328 327 327 328 328 328 328 328 328 329 330 330 330 330 331 331 329 329 328 328 328 328 327
Wind_Speed
17 17 19 18 15 14 12 10 8 8 9 9 10 13 15 16 17 17 16 16 16 15 14 13 13 13 15 15 15 14 13 13 13 12 11 11 11 10 10 10 10 10 9 10 10 10 12 11 10 11 12 13 13 12 12 12 12 12 13 13 13 13 13 13 12 12 12 11 11 10 10 10 9 8 9 10 10 11 11 12 11 10 9 8 9
19 19 20 19 16 15 13 11 8 8 10 10 10 12 14 16 17 17 17 17 17 17 16 15 15 15 15 14 14 13 12 12 12 12 11 10 10 9 8 8 8 8 8 8 9 9 10 11 11 12 13 14 13 12 12 11 11 12 12 12 13 13 12 12 11 11 10 10 10 10 9 8 8 8 8 8 8 8 9 10 10 9 8 8 9
20 21 22 19 17 16 14 11 9 9 11 12 11 13 15 16 17 17 18 18 18 18 17 16 16 15 14 13 13 12 11 11 11 11 10 9 8 8 7 7 7 7 7 7 7 7 9 11 11 13 13 13 12 12 12 11 11 12 11 11 11 11 10 9 9 9 9 10 9 9 9 8 7 6 7 7 7 8 8 8 9 9 8 8 8
21 24 23 20 18 16 14 12 9 9 11 13 12 14 16 17 18 18 19 19 19 18 17 16 15 14 13 12 12 11 11 10 10 9 9 9 8 7 6 6 5 5 5 5 6 6 9 12 11 12 12 12 12 12 12 12 11 11 10 9 8 7 6 5 6 6 8 10 9 10 9 7 5 5 6 6 6 6 6 6 7 8 8 8 8
21 26 23 21 19 17 15 12 10 10 12 13 13 14 16 18 19 19 19 18 18 16 15 16 14 13 13 12 11 10 10 10 9 8 8 7 7 6 5 4 4 4 4 5 5 6 11 12 11 10 10 11 12 11 11 10 9 9 7 6 5 4 3 3 3 5 8 8 10 11 8 6 4 5 6 4 5 4 4 4 5 6 6 6 6
23 26 23 21 19 18 16 12 10 10 12 13 14 15 16 18 19 20 19 17 16 14 15 16 14 13 12 11 10 9 9 8 7 7 7 5 5 4 3 3 3 4 4 4 4 7 12 12 11 9 9 10 10 9 8 7 7 5 4 4 3 3 3 2 3 5 8 9 11 10 8 7 4 5 7 5 4 3 3 3 3 4 4 5 4
25 26 23 21 20 18 16 12 10 10 12 13 14 15 16 17 19 19 18 16 14 14 15 15 14 12 11 10 9 8 8 7 6 6 6 5 4 3 3 4 4 4 4 5 5 9 14 12 10 9 8 9 9 7 5 5 5 4 3 4 4 4 4 5 7 9 11 10 10 9 8 8 4 5 8 6 5 4 4 3 3 3 4 5 5
26 26 23 21 19 18 16 12 10 10 12 13 14 15 15 17 17 17 16 15 14 15 15 14 13 12 10 9 8 7 6 6 6 6 6 6 5 4 4 3 3 4 5 5 6 11 15 12 11 9 8 9 8 6 4 5 5 4 4 4 4 5 7 10 11 11 11 10 9 9 8 7 4 5 7 7 6 6 5 5 3 3 5 5 6
27 25 23 21 19 18 15 12 10 10 12 13 14 15 15 16 17 16 15 14 15 15 14 13 12 11 9 8 7 5 5 6 7 7 7 7 6 5 4 3 4 5 6 7 7 10 12 12 11 9 8 8 7 5 5 7 7 6 5 6 6 8 11 12 14 13 11 8 8 8 9 8 4 4 7 7 7 6 6 6 5 6 7 7 7
27 25 22 20 19 18 15 13 10 10 12 13 14 15 15 15 16 15 14 14 15 15 14 13 11 10 9 8 6 5 6 7 8 8 7 7 7 7 6 5 5 6 7 8 8 8 9 9 9 8 8 9 8 8 8 8 8 8 8 9 9 11 13 13 14 13 9 6 7 7 9 10 4 4 8 7 7 6 5 5 5 6 7 6 6
27 25 21 20 19 17 15 13 10 10 11 13 14 14 14 14 14 14 14 14 15 14 13 12 11 10 9 7 6 6 7 8 8 8 8 8 8 8 8 7 6 7 8 9 9 9 9 9 9 9 10 11 11 10 9 9 9 10 11 12 13 14 13 15 13 9 8 6 6 8 8 8 5 5 7 7 7 6 5 4 4 4 4 5 5
28 24 19 20 19 16 15 13 11 9 10 12 13 14 14 13 13 13 13 14 14 14 13 11 11 10 8 7 6 6 8 8 9 9 9 8 9 9 9 9 8 8 9 9 10 10 10 9 10 11 12 12 11 10 9 9 11 13 14 15 16 16 14 17 13 6 7 6 6 9 6 4 4 6 7 7 7 6 5 4 3 3 3 3 3
27 21 19 21 19 16 14 12 11 9 9 11 12 13 13 12 12 12 12 13 13 13 12 11 11 9 8 6 5 7 8 9 9 9 9 9 9 10 10 10 10 9 9 10 10 11 10 10 11 12 12 11 10 9 9 9 12 13 15 16 17 17 16 18 13 7 7 7 8 8 5 3 3 5 6 5 5 5 5 4 3 3 2 2 2
26 20 20 21 19 17 14 12 11 10 9 10 12 13 13 13 12 11 11 12 12 12 11 11 10 9 7 6 5 7 8 9 9 9 8 9 9 10 10 10 10 9 9 10 10 11 10 10 11 12 11 11 9 9 9 9 11 13 14 15 16 16 16 16 12 9 9 9 10 7 5 5 3 4 3 4 4 3 3 3 2 2 1 1 1
23 20 20 20 20 17 15 13 11 10 10 10 11 12 12 12 11 11 10 11 12 11 11 11 9 8 7 5 5 7 8 9 8 8 8 8 8 9 9 9 9 9 9 9 9 9 9 9 10 11 11 10 9 8 8 9 10 12 13 13 14 13 15 13 8 8 10 8 9 7 4 5 5 4 3 3 3 3 2 2 1 1 1 1 1
19 20 18 18 20 17 15 14 12 11 10 10 11 12 12 11 11 11 10 11 12 11 11 10 9 8 7 5 5 7 8 8 8 7 7 7 7 8 8 8 9 9 8 8 8 8 8 7 8 10 10 9 8 8 7 8 8 10 11 11 12 11 13 12 6 6 7 6 8 7 3 4 6 4 4 3 4 4 3 2 2 2 2 2 3
17 18 17 17 18 17 16 14 13 12 11 11 11 12 12 12 11 11 11 12 12 11 10 10 9 7 6 5 5 7 7 7 7 6 6 6 6 6 6 7 7 8 8 8 7 6 6 5 5 6 8 8 7 7 6 6 7 7 8 9 9 9 10 11 8 5 5 6 7 6 3 4 4 3 4 3 3 4 4 3 3 3 3 3 4
18 18 16 16 16 15 15 15 14 13 13 12 12 12 12 13 12 12 12 12 12 11 10 9 8 7 6 5 5 6 6 7 6 6 5 4 4 5 4 5 5 6 7 7 7 6 5 3 2 2 4 5 6 6 5 5 5 5 6 6 7 7 6 8 8 4 5 7 6 4 2 3 4 3 3 3 2 1 2 2 3 3 3 4 4
17 18 16 15 16 14 14 15 13 13 14 12 12 13 13 13 13 12 12 12 12 10 10 9 8 7 5 4 4 4 4 5 5 5 4 3 3 3 3 3 3 4 5 6 6 6 5 4 3 2 2 1 2 3 3 3 3 3 4 4 4 4 3 5 5 2 4 5 4 3 1 3 4 3 4 3 2 0 0 1 2 3 4 4 5
16 17 17 15 15 14 13 13 11 12 13 12 12 13 14 13 13 12 12 12 11 10 9 8 7 6 5 4 4 5 4 3 3 3 4 3 2 2 2 2 2 2 3 4 5 7 7 7 6 5 4 4 3 2 2 1 1 1 1 1 2 2 2 3 2 2 2 1 3 2 1 3 3 3 4 4 3 2 1 2 2 3 4 4 5
16 17 16 15 14 14 13 12 11 11 11 11 11 12 14 13 13 12 12 12 11 10 8 7 6 4 5 5 6 5 3 1 2 1 1 2 2 1 1 2 2 2 2 4 5 7 8 9 8 8 7 7 6 6 5 4 2 2 2 1 1 1 1 1 2 2 1 1 1 0 1 3 2 3 4 4 4 3 3 3 3 3 4 5 6
16 16 16 15 15 15 14 13 12 12 11 11 10 12 14 13 13 12 11 11 10 9 8 6 6 4 5 6 4 4 3 2 2 1 1 1 2 1 2 2 3 3 3 3 5 7 9 10 10 11 10 9 9 8 8 8 7 6 5 4 3 2 3 2 2 2 2 1 1 3 0 2 2 3 4 4 4 4 4 4 4 4 5 5 6
15 16 16 16 16 16 14 13 13 12 12 11 10 11 11 11 12 11 10 10 9 9 8 7 6 5 6 6 5 5 3 1 1 1 0 0 1 1 1 1 3 3 3 4 4 6 8 10 11 12 12 12 10 8 7 8 10 9 7 6 4 4 6 5 2 3 4 3 4 4 1 1 2 3 3 4 5 5 5 5 4 4 5 5 7
15 16 17 18 17 15 14 13 13 13 11 9 9 10 10 10 10 9 9 9 8 8 8 7 6 5 5 5 4 3 2 1 1 1 0 0 2 3 4 3 2 3 3 4 5 6 7 9 11 13 13 13 11 9 8 7 10 11 9 8 6 7 9 7 5 5 5 5 6 4 2 1 2 3 4 5 5 6 6 6 5 5 5 6 7
15 15 16 17 16 15 14 12 13 13 10 9 10 11 10 12 11 9 8 8 8 7 7 6 5 5 4 4 4 4 3 1 1 1 2 3 3 3 4 4 4 4 4 5 5 6 8 8 10 11 11 12 13 13 12 10 10 11 11 11 10 10 10 8 8 7 6 7 8 6 4 3 2 3 4 4 5 6 7 7 7 6 6 7 8
15 15 15 16 16 15 14 12 12 13 10 9 10 11 11 13 12 9 8 8 7 7 6 5 5 5 5 4 4 5 4 2 2 2 2 3 2 2 3 4 3 4 5 5 5 6 7 8 10 10 10 11 13 16 18 16 13 11 11 13 12 12 12 11 11 10 8 9 10 8 6 5 5 4 4 5 6 7 7 8 8 7 7 8 9
15 15 15 17 16 15 14 12 12 12 10 10 11 11 12 13 12 10 9 8 8 8 8 7 7 7 6 5 5 4 4 2 1 1 1 1 2 3 3 4 3 4 5 5 5 6 6 7 10 11 12 12 11 13 16 17 17 15 13 13 13 12 13 14 13 12 11 10 12 11 8 7 7 7 6 6 8 8 8 8 8 8 8 8 10
15 15 16 16 15 14 13 11 11 11 10 10 12 12 13 14 12 10 9 10 10 11 11 10 9 8 7 5 3 3 3 2 2 2 2 3 4 5 5 5 4 4 6 6 5 7 7 7 9 10 12 12 11 11 11 13 16 17 16 15 16 15 14 15 15 15 14 12 13 13 11 10 9 9 9 8 9 9 9 9 9 9 10 10 9
16 15 15 15 14 13 13 12 11 10 10 12 12 14 15 14 12 10 11 12 13 13 12 11 9 7 5 3 2 1 1 1 2 3 4 4 5 6 6 5 5 6 6 6 7 7 7 8 9 9 10 10 12 12 12 12 14 16 17 17 17 19 18 18 18 18 17 16 14 15 14 12 12 12 11 11 10 10 10 9 9 10 11 11 10
15 15 14 14 14 13 13 12 12 10 11 13 13 14 15 13 12 12 13 14 13 13 11 9 7 5 3 3 2 2 2 2 3 4 5 5 6 7 8 7 7 7 7 7 8 9 9 10 10 11 11 11 11 12 13 13 14 15 16 16 17 19 20 20 20 19 19 18 17 16 16 15 15 14 14 13 12 11 11 10 9 10 12 12 11
15 15 13 13 14 13 13 13 13 13 13 13 14 15 14 13 13 14 13 13 12 11 9 8 7 5 4 3 2 2 2 3 3 5 5 6 7 7 9 9 8 9 9 9 10 10 10 12 12 12 12 13 13 13 13 13 14 15 15 16 17 18 19 19 20 20 21 20 19 18 18 18 17 16 16 14 14 13 12 12 10 11 12 12 12
14 15 12 13 14 13 13 14 14 15 15 14 14 15 15 13 12 11 10 11 11 9 7 6 6 5 4 3 1 2 2 3 4 5 6 7 8 8 9 10 10 11 12 12 12 12 11 12 12 13 14 15 15 14 14 15 16 16 16 16 17 18 18 19 20 21 23 23 22 21 21 21 19 18 17 16 16 15 14 13 11 11 13 13 12
13 13 13 14 15 14 14 15 15 15 15 15 15 15 14 12 11 9 9 10 9 7 6 5 4 2 1 1 2 3 3 3 5 7 8 8 8 9 9 10 11 12 13 13 13 13 12 11 11 12 13 15 16 15 15 15 16 16 17 17 17 18 18 18 19 19 21 23 24 23 23 23 23 21 20 19 18 17 15 14 13 12 13 14 13
14 13 13 15 15 16 17 17 16 16 15 16 17 17 15 13 11 10 10 9 7 6 5 4 2 2 2 3 3 3 4 4 6 7 8 8 8 9 9 10 11 12 12 12 13 14 14 13 12 12 12 13 15 15 15 16 16 16 17 17 17 18 18 19 19 19 20 23 24 24 24 25 25 25 23 21 20 19 17 15 14 14 13 14 14
15 14 14 15 16 17 18 18 17 17 17 17 18 17 15 13 11 9 8 7 6 5 4 3 2 2 2 3 4 4 4 5 6 6 7 8 8 8 9 10 11 12 11 11 12 13 13 14 13 13 13 13 15 14 14 16 17 18 17 17 18 18 18 19 20 21 22 25 25 25 27 28 26 26 25 22 20 19 19 17 15 15 15 15 15
15 14 15 15 16 18 19 19 18 18 19 18 17 16 14 11 9 9 8 7 5 4 3 2 1 2 2 3 4 4 4 5 5 6 7 7 8 8 9 11 11 12 11 11 12 12 12 13 13 13 13 14 15 13 14 16 17 19 19 18 18 18 19 21 21 21 22 23 24 24 27 29 28 26 26 23 20 19 19 19 17 17 17 16 16
14 15 16 16 17 18 19 18 17 16 17 17 15 14 12 10 9 8 7 5 4 2 2 1 1 2 2 3 4 4 4 4 5 6 6 7 8 9 10 11 12 12 12 12 13 12 13 14 13 13 13 14 14 14 15 15 15 17 18 18 19 19 20 22 23 24 22 21 23 24 25 28 28 26 27 26 24 22 20 20 20 19 19 18 17
15 16 16 17 17 17 18 16 16 15 15 15 13 12 11 9 8 7 6 5 3 3 2 1 1 2 2 4 5 4 3 4 5 6 6 7 7 8 9 11 12 12 12 13 13 12 13 14 15 14 13 14 14 14 15 15 16 17 17 18 20 21 21 21 23 26 26 25 25 25 25 28 28 27 28 28 28 28 26 25 23 22 22 21 19
16 17 16 17 18 17 17 16 16 16 15 14 13 11 10 8 7 6 5 4 3 3 3 3 2 2 3 4 3 2 3 5 6 6 6 6 7 7 9 10 11 12 13 13 13 13 13 14 16 15 15 15 16 16 17 18 17 18 18 19 20 22 23 24 23 24 25 26 26 25 25 27 28 27 28 29 28 27 27 27 27 25 23 22 21
17 17 17 18 19 18 17 17 17 16 15 14 13 11 9 8 6 6 5 4 3 3 3 4 2 1 3 3 2 3 4 5 6 6 6 7 7 7 9 10 11 11 11 11 11 11 13 15 15 16 17 17 16 16 18 20 20 21 21 21 22 23 24 24 24 24 25 26 25 25 25 25 25 26 27 28 27 27 26 27 28 27 25 22 21
19 18 18 18 19 19 18 17 16 16 15 13 13 11 9 7 7 6 5 4 3 3 3 3 2 0 1 2 2 2 3 4 5 5 5 7 7 7 8 8 8 9 9 9 10 11 13 14 14 16 16 17 16 16 18 21 23 23 22 21 22 23 24 24 24 24 25 25 23 24 25 24 23 24 25 26 26 27 26 27 27 27 25 21 19
20 18 19 18 18 18 17 16 16 16 14 12 11 10 9 8 7 7 6 5 4 3 3 3 4 2 0 0 1 2 3 4 5 5 5 5 6 6 7 7 7 8 9 10 10 12 13 12 13 15 16 17 18 18 19 21 22 22 20 21 23 23 23 23 24 24 24 23 22 23 24 23 23 23 23 23 24 25 26 27 27 27 25 19 18
19 18 19 19 19 18 16 15 15 15 14 12 11 11 10 9 7 7 6 6 6 5 4 3 4 3 2 1 1 2 3 4 5 5 6 6 7 7 7 8 8 8 10 10 10 11 12 12 13 14 15 16 18 18 18 19 20 20 18 20 22 22 21 19 21 23 22 20 19 20 23 23 23 21 21 21 22 23 26 27 27 27 26 23 21
16 17 18 18 18 17 16 14 13 14 14 12 12 11 10 9 8 8 7 6 6 6 4 3 3 1 2 1 3 3 4 6 7 7 8 8 9 8 9 8 8 9 9 9 10 11 12 13 14 14 15 16 18 18 18 19 19 18 16 17 19 20 20 17 18 21 19 18 18 19 20 21 21 20 20 21 22 22 25 27 28 28 29 28 25
15 16 17 17 17 16 15 14 12 13 13 13 12 10 8 8 8 8 7 6 5 5 3 1 1 1 2 2 3 5 6 8 9 10 10 11 11 11 11 11 10 10 8 8 9 10 11 12 13 14 14 16 19 18 18 18 18 18 17 19 18 17 20 19 19 22 19 17 18 18 18 18 18 19 19 20 21 22 23 25 27 29 30 29 28
14 15 16 16 16 15 14 14 13 12 12 12 10 8 7 6 6 6 6 4 3 3 2 1 0 1 2 2 5 7 9 10 10 11 12 13 13 12 12 13 13 12 9 8 9 10 10 11 12 12 14 15 16 18 18 17 17 18 19 21 20 20 25 25 23 24 22 19 18 18 18 18 18 18 19 20 21 22 23 24 25 27 29 30 29
15 15 15 15 15 14 14 14 13 12 11 10 9 7 6 6 7 5 5 4 3 3 3 2 2 1 2 3 5 8 9 10 11 12 13 12 12 12 13 13 12 11 10 9 9 10 10 11 12 13 15 15 14 17 18 17 18 18 19 21 22 23 24 25 25 24 23 22 22 20 18 18 19 19 19 20 21 22 22 24 25 25 27 30 30
15 14 15 15 14 13 13 13 12 11 10 9 8 7 7 7 6 5 5 5 3 3 2 1 1 1 2 3 5 8 9 10 11 11 11 11 12 12 12 12 11 10 10 8 8 10 11 12 14 14 15 15 14 17 18 19 20 21 20 20 22 22 20 21 23 21 21 25 28 25 20 18 19 20 21 21 21 23 22 22 24 24 25 28 30
15 14 14 14 13 14 13 12 11 10 9 9 9 8 7 7 6 5 4 3 2 1 1 1 1 1 2 3 5 7 8 9 9 9 9 10 10 11 10 11 12 11 10 9 9 11 11 13 14 14 14 14 15 17 18 19 20 21 22 21 22 23 19 20 20 18 20 25 27 25 22 20 19 19 19 19 21 22 23 22 23 24 25 26 28
14 13 14 13 12 13 12 11 10 9 9 10 9 7 7 6 5 4 2 1 1 1 2 2 1 1 1 2 4 6 7 7 6 7 7 8 9 10 11 11 12 12 13 13 13 13 13 13 13 13 14 14 14 15 17 19 19 20 21 20 21 22 20 20 18 16 17 19 21 22 20 19 21 19 17 19 21 21 22 22 22 23 24 26 27
15 13 14 13 13 12 12 11 10 9 10 9 8 6 6 5 3 2 1 1 1 2 2 2 1 1 1 2 3 4 5 5 5 6 7 8 9 11 11 12 12 12 13 14 15 15 15 14 13 12 13 13 14 16 17 18 18 19 20 19 17 19 19 19 18 17 16 16 18 20 21 19 20 21 20 20 20 19 20 21 22 24 24 26 28
Wind_Direction
156 172 175 175 173 163 156 153 151 157 148 144 145 139 138 138 139 137 133 130 128 127 125 121 114 110 103 102 102 105 106 105 104 105 107 106 108 109 108 105 105 105 103 102 97 92 88 95 102 104 105 105 106 110 112 111 109 108 107 106 104 100 98 96 93 91 88 84 78 72 70 68 69 74 81 84 85 85 85 84 79 72 69 72 72
160 177 174 173 172 162 157 155 156 158 146 145 149 142 139 138 137 133 128 125 124 123 120 116 110 107 104 105 106 106 106 105 105 106 106 105 105 105 104 104 106 106 106 102 99 91 90 102 107 107 107 105 107 109 110 110 109 107 106 105 104 103 100 96 91 86 79 72 65 61 65 70 74 78 82 87 91 91 90 89 87 79 70 68 67
160 173 170 172 170 162 158 157 160 160 147 146 151 146 143 139 136 131 126 123 122 121 119 114 109 107 106 106 107 107 106 106 107 105 104 104 102 101 99 100 103 107 109 103 100 91 97 110 108 108 107 106 107 107 107 107 107 104 103 102 103 103 98 94 89 82 72 65 61 62 64 70 78 86 88 91 98 99 95 90 88 79 71 69 69
160 169 169 169 167 162 159 160 162 160 150 147 151 149 147 142 138 133 127 124 122 121 118 112 108 107 107 108 108 107 108 110 109 107 108 108 107 106 108 113 113 114 112 108 105 94 109 118 112 111 109 108 108 106 106 104 105 103 102 102 101 98 93 84 79 78 68 60 67 73 68 64 75 104 106 104 108 106 99 89 83 76 74 74 74
161 168 170 166 164 163 159 162 162 159 152 148 150 150 148 142 137 133 129 125 123 122 115 109 108 108 110 110 109 110 114 114 113 113 115 118 119 123 132 133 131 132 128 122 114 104 120 127 120 118 115 111 109 105 102 102 103 101 99 94 91 87 76 64 70 79 72 68 80 82 76 66 67 120 128 133 129 124 111 89 83 81 79 79 82
160 167 169 164 165 163 160 163 161 159 152 149 149 150 148 141 137 134 131 128 126 120 110 108 110 110 111 110 110 114 114 113 114 119 124 128 133 147 169 166 155 144 141 140 125 119 129 134 129 127 123 115 109 104 101 101 99 95 85 69 55 41 28 40 81 96 94 87 85 85 82 75 71 118 128 143 143 139 119 95 88 91 91 91 92
161 167 166 166 166 161 160 162 161 158 151 150 148 149 148 141 139 136 133 130 125 115 108 110 112 111 111 112 114 115 114 113 112 116 123 129 139 156 178 183 169 142 135 138 128 134 137 136 137 139 130 121 111 103 97 90 93 91 68 53 38 29 33 66 100 117 113 97 89 91 88 84 80 108 119 129 132 126 112 96 85 99 109 106 105
161 166 164 167 168 161 160 162 162 157 153 151 149 150 149 143 141 137 133 129 120 113 111 113 114 114 114 116 118 120 119 117 112 112 115 117 124 135 159 164 146 129 122 122 122 141 146 143 145 147 134 126 114 102 88 82 92 92 72 60 52 50 62 83 107 115 104 97 100 95 86 81 70 98 111 117 121 121 121 118 113 126 127 119 114
160 163 164 168 168 160 160 164 161 155 154 152 149 151 151 147 143 137 133 125 119 116 116 117 116 116 116 119 118 119 120 114 110 108 106 106 106 109 127 128 114 114 113 114 116 138 153 155 152 146 132 124 116 109 94 88 92 88 80 76 76 77 79 91 105 102 90 94 104 100 101 91 61 92 105 108 115 118 127 129 132 139 131 123 117
160 163 163 168 167 161 162 164 161 156 154 153 150 153 154 151 146 139 133 126 122 121 121 120 119 121 120 121 117 118 118 113 109 104 103 99 97 98 105 110 105 111 117 120 120 132 147 150 147 136 124 121 119 114 101 95 92 91 89 88 90 90 91 96 93 93 97 99 98 97 110 110 100 100 102 107 110 109 114 117 121 125 124 120 118
162 162 160 169 166 162 164 162 161 157 152 154 153 156 158 155 148 140 136 129 126 126 125 123 122 125 125 124 120 121 119 114 111 106 104 100 97 94 96 101 101 109 120 125 127 130 129 127 128 122 119 120 118 112 104 100 96 96 94 92 93 93 99 98 86 86 100 98 92 80 79 95 104 102 104 109 109 110 106 101 101 102 108 110 111
163 159 159 168 164 163 165 162 160 156 152 156 156 158 160 159 152 142 139 132 131 132 129 127 126 129 129 126 121 120 120 116 112 107 103 100 97 92 89 91 95 103 115 124 127 126 123 122 121 119 120 118 114 110 106 105 101 97 94 93 92 93 96 95 91 89 97 94 82 80 78 82 92 99 103 106 109 112 110 109 103 100 102 105 107
161 157 164 166 163 165 164 162 159 155 152 157 159 160 163 164 158 148 143 135 135 136 132 132 133 134 131 126 123 123 122 118 113 108 104 101 96 92 87 86 90 99 111 121 124 125 126 125 123 122 122 116 112 109 109 108 101 94 93 94 93 94 94 93 98 104 100 98 81 77 90 97 105 107 107 109 112 115 117 122 118 121 122 121 124
161 158 165 165 165 166 163 162 159 157 153 158 161 161 167 167 163 156 148 140 138 136 134 137 138 138 133 128 127 127 124 119 114 110 104 101 97 94 90 88 90 98 110 119 125 130 130 128 126 127 124 119 115 112 112 107 98 94 92 94 95 97 95 87 90 103 97 94 91 80 69 73 105 134 140 126 122 127 130 136 136 145 149 164 172
165 162 163 165 168 166 162 161 160 160 155 158 162 165 170 167 164 159 153 147 141 138 139 140 141 140 137 133 132 131 126 120 116 111 105 100 96 95 94 93 93 100 112 122 129 134 136 134 130 129 128 123 118 115 113 106 98 94 93 94 95 97 99 87 75 95 91 85 91 91 72 71 88 113 146 155 157 159 158 164 169 180 193 224 226
164 163 160 165 169 167 164 161 161 161 158 159 162 168 169 165 164 161 159 154 148 146 145 144 144 143 141 137 132 133 126 120 117 112 109 102 97 95 95 96 98 104 114 127 136 140 144 143 135 131 128 125 121 118 114 108 100 95 94 94 93 91 96 96 83 78 84 88 90 93 75 64 81 89 106 146 180 182 194 199 221 233 235 251 241
158 159 159 162 166 166 165 164 165 164 164 162 162 168 167 165 165 163 161 159 157 153 150 150 150 147 146 140 132 132 125 120 119 116 113 107 101 97 96 98 102 108 118 132 144 149 152 153 145 134 128 125 123 121 118 110 99 97 96 93 95 90 91 97 89 66 87 104 89 94 86 50 72 76 81 109 159 182 204 213 233 242 247 257 248
157 157 158 159 160 161 165 170 169 168 170 166 164 165 167 167 166 165 163 163 163 160 159 157 157 159 153 143 140 137 126 123 122 117 113 110 109 104 99 99 103 111 123 138 153 163 168 173 168 151 137 127 126 125 123 114 100 101 100 96 98 94 95 94 82 58 80 90 80 92 110 64 65 65 71 88 114 170 213 228 241 250 256 258 251
158 158 159 159 160 160 165 170 166 168 173 171 168 165 166 168 167 165 164 166 166 164 163 160 163 165 158 149 142 125 117 124 125 121 117 115 118 117 112 104 107 116 130 146 163 179 189 198 205 220 228 180 146 136 131 121 103 102 104 98 93 98 108 91 83 67 57 66 84 87 79 79 73 73 75 72 72 50 291 274 273 274 270 268 261
162 161 161 163 167 168 165 163 159 161 169 171 170 168 167 168 168 165 165 167 168 167 162 158 159 155 154 145 101 76 70 67 80 112 123 125 125 126 134 133 134 135 149 165 180 195 205 213 220 228 243 257 258 242 215 172 122 131 119 100 85 102 99 95 121 120 75 35 100 84 20 73 64 71 77 69 64 36 0 319 303 291 280 275 271
168 165 167 169 171 176 170 165 163 154 157 162 165 170 168 167 167 165 167 167 169 167 162 159 150 156 154 116 82 89 99 64 88 127 117 129 136 149 182 180 184 191 188 192 201 209 218 223 226 232 241 251 265 274 270 266 257 260 261 256 282 286 30 108 170 130 160 237 92 76 3 65 39 50 60 55 55 35 16 342 316 298 290 282 277
170 170 174 174 174 180 176 168 165 155 159 163 165 172 168 166 166 164 165 166 164 155 157 157 143 155 140 113 124 166 180 186 171 171 44 119 131 153 207 217 213 213 217 217 220 225 230 232 233 237 243 247 258 273 279 279 271 265 260 264 292 280 272 263 205 206 222 230 216 231 339 59 26 30 32 32 33 23 19 356 335 311 298 292 284
169 173 175 177 180 182 177 168 166 165 169 169 167 170 165 161 162 162 161 162 158 148 156 156 146 157 147 150 185 196 189 183 156 97 0 237 84 27 329 251 235 235 235 232 236 238 241 243 243 243 248 253 257 260 265 275 274 273 273 271 282 263 263 275 252 231 241 246 234 231 242 46 16 15 10 9 6 5 1 350 346 327 308 298 288
169 175 178 181 182 180 176 170 172 174 169 161 163 165 163 159 157 163 161 162 161 155 163 160 157 164 161 171 186 199 200 188 168 111 21 344 37 13 1 351 309 293 280 265 256 255 256 254 254 254 256 257 253 246 240 248 260 267 273 269 259 251 262 272 263 246 242 252 253 254 272 292 348 352 356 354 346 343 337 334 336 331 321 305 293
167 174 183 182 180 180 177 173 175 179 170 158 167 171 171 165 159 163 162 165 166 164 168 165 166 170 173 179 180 191 189 164 123 66 13 16 28 3 336 331 320 303 300 293 275 271 272 264 262 262 259 255 250 247 242 236 245 255 257 256 251 251 257 256 257 256 246 255 263 266 278 290 309 323 335 335 329 327 320 319 318 320 318 309 301
168 174 181 179 179 181 178 175 177 180 174 164 172 175 173 170 165 164 161 165 167 167 169 167 170 169 172 171 172 176 157 122 62 19 340 356 -0 317 289 287 292 286 291 295 282 276 273 264 263 259 253 255 256 258 256 249 246 251 255 254 249 248 251 251 257 262 252 252 261 263 272 285 291 296 308 316 316 314 308 306 306 308 312 309 303
171 175 178 176 178 180 177 176 178 181 178 170 172 172 167 168 170 164 160 165 164 164 166 163 164 162 162 158 161 157 127 114 83 259 260 292 276 276 283 280 284 286 285 286 285 280 273 265 262 258 256 257 260 264 265 261 253 249 250 255 253 245 246 251 255 257 252 249 257 260 262 274 284 288 292 301 304 307 307 304 301 302 308 308 302
171 175 174 176 177 177 175 173 177 180 178 173 170 168 166 167 168 161 160 164 159 160 163 162 161 157 153 139 133 124 108 135 209 231 250 262 268 275 278 283 284 283 280 279 279 276 273 271 268 266 265 261 257 257 260 261 259 255 248 249 255 252 249 252 253 253 253 251 256 259 260 266 274 279 282 286 294 303 309 308 302 297 301 303 298
172 172 170 174 174 174 175 175 176 175 174 172 168 167 167 165 162 158 159 157 154 159 163 163 159 150 142 126 116 107 113 214 249 266 279 280 285 286 282 285 283 278 279 277 273 269 268 268 268 269 268 264 260 257 254 252 257 260 254 248 251 255 256 256 257 257 255 252 253 259 262 267 270 272 275 278 284 294 302 306 301 293 294 297 295
171 169 169 172 171 172 176 179 176 169 169 168 165 167 165 159 156 156 156 152 154 160 162 164 155 148 156 166 186 185 203 251 280 287 295 297 297 297 294 291 285 280 277 276 274 269 268 267 267 267 266 268 266 262 258 256 257 257 255 251 249 253 257 258 259 258 257 253 251 257 264 268 268 268 269 271 277 284 294 300 299 294 290 292 292
169 169 169 171 172 174 176 178 173 166 169 166 165 166 160 155 154 154 155 153 157 159 162 164 155 163 180 183 206 218 232 259 286 295 303 305 301 302 302 301 298 289 283 282 280 279 278 277 276 272 267 265 264 264 263 261 259 256 254 254 251 251 253 255 256 257 259 257 255 257 263 267 267 265 264 264 269 274 282 292 296 293 289 287 287
170 169 166 170 173 174 173 172 171 168 167 165 164 163 157 155 153 153 156 157 159 160 163 166 163 175 183 177 219 256 270 286 293 296 300 302 301 302 304 303 299 294 295 296 294 294 292 289 286 281 275 271 267 264 265 265 263 261 258 255 255 254 253 252 254 256 258 259 261 261 263 267 268 265 260 259 261 263 269 281 287 288 287 284 281
170 168 165 170 172 171 170 169 170 168 164 162 162 159 156 155 154 156 158 160 164 164 166 171 177 193 221 226 241 269 287 297 294 297 300 299 297 298 298 294 294 298 304 306 305 306 304 298 292 288 285 281 276 270 266 266 265 266 264 260 257 254 254 254 252 254 257 260 263 264 265 268 270 267 262 258 258 257 259 269 278 282 282 280 276
167 168 167 169 172 171 170 170 169 165 162 162 160 158 158 158 158 160 160 165 170 169 175 178 184 213 272 285 284 287 295 295 293 297 298 294 291 294 296 296 301 305 307 308 309 311 310 307 302 299 295 287 285 282 275 271 266 265 265 264 260 256 255 254 253 252 252 258 262 264 265 267 270 269 267 262 258 254 253 259 269 274 274 274 271
167 169 168 168 172 171 169 169 167 164 164 163 160 159 159 160 161 163 164 172 176 179 185 179 206 249 278 299 299 293 293 289 288 290 287 289 293 300 305 308 311 311 312 311 310 313 311 310 309 307 303 294 293 291 283 279 275 269 265 263 263 262 259 255 255 254 254 257 261 263 264 265 266 266 267 263 254 249 249 253 260 266 267 266 266
169 168 166 167 169 170 170 168 166 165 165 163 161 160 160 161 168 168 169 176 175 177 186 182 235 285 302 302 296 284 275 276 283 289 291 297 305 310 312 311 312 313 313 311 310 311 308 309 310 306 302 297 296 293 285 282 280 279 274 268 263 262 261 259 257 258 259 259 258 259 262 264 263 261 262 259 250 246 248 250 253 259 262 259 259
166 165 166 169 168 168 169 166 164 164 164 165 163 162 163 167 173 169 164 166 156 163 195 209 254 270 274 270 267 258 258 283 298 302 304 307 308 310 310 308 308 310 310 310 311 311 311 312 311 305 301 297 294 291 288 284 281 281 279 274 270 267 264 263 262 260 260 258 258 258 258 262 262 259 258 256 253 253 255 254 252 254 258 256 252
162 165 167 169 169 166 165 164 165 164 164 166 164 167 169 169 171 162 154 154 156 177 193 203 237 245 249 249 250 254 287 310 311 309 307 305 306 308 308 307 308 310 309 309 309 307 306 304 302 301 299 295 293 291 289 287 284 281 280 277 276 274 270 267 266 265 262 260 260 259 258 261 260 257 255 255 256 258 259 259 256 252 254 254 249
160 166 168 168 166 164 166 167 168 167 165 166 167 170 171 170 165 156 154 158 167 186 188 184 197 227 243 249 258 309 327 314 312 317 316 314 315 313 309 308 308 307 305 304 306 305 305 304 303 303 299 293 291 290 289 287 285 282 280 278 277 276 275 273 271 269 265 262 261 260 259 259 259 255 255 256 255 256 255 253 253 250 250 252 249
161 170 171 169 164 165 171 172 171 170 168 168 168 168 171 170 162 157 159 159 167 188 189 172 161 233 258 277 344 356 329 323 327 329 327 323 320 311 305 305 307 304 300 303 306 310 314 315 312 307 304 301 296 294 292 289 287 285 284 282 279 278 277 275 272 268 266 264 261 260 260 258 257 255 255 256 253 252 249 246 247 245 245 248 247
165 171 169 166 165 169 173 173 175 174 172 172 168 165 168 166 162 162 158 155 170 186 170 148 138 180 324 17 21 324 313 317 316 316 316 313 310 304 302 306 310 307 305 308 310 316 321 319 312 309 308 306 302 299 297 295 293 292 290 287 282 279 278 277 274 269 267 266 261 259 259 256 255 254 253 255 253 249 244 243 244 241 241 242 244
170 167 162 165 170 173 173 176 180 175 172 171 165 163 165 165 161 158 157 156 160 159 153 148 138 127 98 148 256 282 304 311 309 316 319 315 315 313 311 312 312 309 310 312 311 315 318 315 312 309 307 305 302 300 298 296 295 294 293 290 286 283 280 275 274 274 270 266 260 256 255 253 253 254 253 254 254 248 240 240 241 238 237 232 235
170 163 162 171 175 176 177 181 179 170 166 163 161 163 166 163 155 160 169 167 162 153 146 140 123 131 208 246 332 320 330 341 339 339 336 332 328 322 320 318 315 314 313 314 315 315 315 313 313 310 306 304 302 301 300 296 294 294 292 288 288 290 285 272 269 275 272 267 263 255 252 252 253 253 251 252 252 247 240 238 238 236 235 230 228
166 163 168 175 176 176 180 184 174 162 162 162 162 164 166 165 166 175 170 156 153 138 123 115 109 164 253 335 358 346 347 351 349 344 339 334 331 327 327 325 321 321 318 317 319 319 317 315 314 313 311 308 305 304 303 298 294 292 288 286 291 290 284 275 273 278 273 267 270 265 256 252 252 251 248 247 248 245 241 239 237 236 235 232 229
166 168 173 174 173 174 175 179 173 163 162 163 162 160 166 176 173 165 144 124 113 99 94 89 68 296 311 352 357 354 347 346 345 339 335 332 331 333 335 334 332 330 324 320 321 320 320 318 317 316 313 311 311 308 303 300 295 290 286 284 286 284 280 286 288 285 279 266 264 268 264 257 251 248 246 246 245 244 243 242 240 238 236 234 232
163 165 170 169 171 172 169 171 169 162 159 157 156 155 169 173 150 138 125 113 112 117 148 212 254 286 313 333 348 352 345 343 340 332 330 331 334 338 340 341 340 338 332 326 325 325 325 325 323 320 318 317 316 310 304 304 298 291 287 282 279 280 284 289 288 287 288 276 261 259 262 265 261 254 250 248 247 245 245 244 242 239 236 233 232
166 162 164 164 166 166 165 166 161 154 152 152 156 158 161 147 130 134 133 134 170 179 186 204 203 246 320 325 336 346 345 341 334 330 332 336 342 344 344 346 343 341 338 334 333 331 332 332 331 333 332 330 322 313 309 309 304 296 292 288 286 286 286 286 283 287 294 287 275 263 255 259 261 260 260 254 251 250 246 244 242 239 236 234 232
173 167 163 163 162 159 159 159 153 147 148 151 155 154 149 141 138 150 153 160 189 196 197 220 207 279 314 310 327 341 344 338 331 334 341 345 349 347 347 349 346 343 340 337 335 334 337 336 335 341 340 331 322 316 313 312 312 309 304 301 301 298 293 290 286 283 286 287 286 276 264 262 258 257 262 258 254 252 249 247 244 240 236 234 233
175 165 160 162 158 155 153 152 148 146 150 151 151 149 148 147 148 154 162 174 180 175 194 239 298 281 308 326 339 345 342 336 334 345 352 350 351 350 351 354 351 349 346 343 340 337 340 338 338 346 343 332 326 322 319 319 319 316 312 310 312 310 302 297 291 281 280 282 283 278 270 272 264 252 255 259 257 255 250 249 247 242 238 234 234
175 165 161 162 157 156 157 155 151 149 150 150 147 146 147 149 153 161 164 174 174 200 209 203 244 262 0 351 347 344 336 334 344 356 356 351 355 359 359 358 355 353 351 350 348 345 344 341 343 349 344 338 335 330 329 331 327 321 318 312 313 315 310 304 297 288 286 283 282 282 277 277 272 262 256 256 257 258 255 250 248 246 241 238 237
173 168 164 162 159 159 162 159 152 146 146 145 143 143 151 153 156 165 163 186 192 205 218 197 166 57 49 2 352 345 339 351 4 3 -0 1 6 7 3 1 358 355 354 353 352 351 349 347 348 349 345 341 340 336 337 339 335 330 325 317 314 316 313 308 301 291 285 284 286 287 282 279 277 274 270 259 250 251 254 252 250 251 247 242 242